Tracking 31027 objects as of 19-Jul-2025
HD Live streaming from Space Station
objects crossing your sky now

STARLINK-31440

Track STARLINK-31440 now!
10-day predictions
STARLINK-31440 is classified as:


NORAD ID: 58999
Int'l Code: 2024-036B
Perigee: 481.5 km
Apogee: 483.2 km
Inclination: 53.2 °
Period: 94.1 minutes
Semi major axis: 6853 km
RCS: Unknown
Launch date: February 23, 2024
Source: United States (US)
Launch site: AIR FORCE WESTERN TEST RANGE (AFWTR)
Your satellite tracking list
NOAA 16 DEB
Track 1 satellite(s)




NASA's NSSDC Master Catalog

Two Line Element Set (TLE):
1 58999U 24036B   25199.71055118  .00003763  00000-0  13909-3 0  9993
2 58999  53.1614  84.6829 0001273  98.9664 261.1481 15.30206756 78692
Source of the keplerian elements: AFSPC